Tracking 19280 objects as of 15-Nov-2018
HD Live streaming from Space Station
objects crossing your sky now

USA 274 DEB

Track USA 274 DEB now!
10-day predictions


NORAD ID: 42065
Int'l Code: 2017-011B
Perigee: 1,058.2 km
Apogee: 1,168.9 km
Inclination: 63.4 °
Period: 107.4 minutes
Semi major axis: 7484 km
RCS: Unknown
Launch date: March 1, 2017
Source: United States (US)
Launch site: AIR FORCE WESTERN TEST RANGE (AFWTR)

Note: This is SATELLITE DEBRIS
aabbcc
Your satellite tracking list
Your tracking list is empty




NASA's NSSDC Master Catalog

Two Line Element Set (TLE):
1 42065U 17011B   18314.16955134 0.00000000  00000-0  00000-0 0    01
2 42065  63.4388  17.0376 0074000 173.9766 186.0234 13.40771448    08
Source of the keplerian elements: McCants